Flag for United Kingdom Weather past 2 weeks in Chichester, England, United Kingdom

Now
75 °F

Mild.


Feels Like: 78 °F
Forecast: 62 / 79 °F
Wind: 14 mph from Southeast

Location: Thorney Island

Current Time: Jun 30, 2015 at 2:50:28 PM

Latest Report: Jun 30, 2015 at 1:00 PM


Visibility: 22 mi

Pressure: 30.08 "Hg

Humidity: 50%

Dew point: 55 °F

Location of ChichesterLocation

Historic Weather in Chichester — Graph

°F

Chichester temperature yesterday

Maximum temperature yesterday: 69 °F (at 5:00 PM)
Minimum temperature yesterday: 55 °F (at 6:00 AM)
Average temperature yesterday: 62 °F

Past Weeks' High & Low Weather Summary

 TemperatureHumidityPressure
High75 °F (Jun 30, 1:00 PM)97% (Jun 16, 4:00 AM)30.32 "Hg (Jun 16, 4:00 AM)
Low47 °F (Jun 16, 4:00 AM)42% (Jun 18, 6:00 PM)29.81 "Hg (Jun 22, 3:00 PM)
Average61 °F79%30.14 "Hg
* Reported Jun 15 2:00 PM — Jun 30 1:00 PM, Chichester, Weather by CustomWeather, © 2015

Note: Actual official high and low records may vary slightly from our data, if they occured in-between our weather recording intervals... More about our weather records

Advertising

Chichester weather history for previous 24 hours

 ConditionsComfort  
Time TempWeatherWind HumidityBarometerVisibility
1:00 PM
Tue, Jun 30
75 °FMild.14 mph50%30.08 "Hg22 mi
12:00 PM72 °FMild.13 mph48%30.10 "Hg25 mi
11:00 AM70 °FMild.13 mph57%30.11 "Hg28 mi
10:00 AM70 °FMild.12 mph52%30.11 "Hg16 mi
9:00 AM67 °FMild.10 mph65%30.12 "Hg15 mi
8:00 AM63 °FMild.9 mph83%30.13 "Hg9 mi
7:00 AM58 °FCool.6 mph90%30.13 "Hg7 mi
6:00 AM53 °FFog.5 mph97%30.14 "Hg5 mi
5:00 AM50 °FFog.5 mph97%30.14 "Hg6 mi
4:00 AM51 °FFog.3 mph97%30.15 "Hg5 mi
3:00 AM52 °FFog.3 mph96%30.16 "Hg6 mi
2:00 AM54 °FCool.2 mph95%30.17 "Hg7 mi
1:00 AM57 °FCool.3 mph90%30.18 "Hg12 mi
12:00 AM59 °FCool.8 mph86%30.19 "Hg12 mi
11:00 PM
Mon, Jun 29
59 °FCool.7 mph89%30.19 "Hg11 mi
9:00 PM62 °FCool.8 mph83%30.18 "Hg16 mi
8:00 PM64 °FMild.9 mph80%30.18 "Hg13 mi
7:00 PM66 °FMild.12 mph67%30.19 "Hg11 mi
6:00 PM67 °FMild.12 mph61%30.19 "Hg16 mi
5:00 PM69 °FMild.12 mph63%30.20 "Hg25 mi
4:00 PM68 °FMild.12 mph62%30.21 "Hg22 mi
3:00 PM67 °FMild.15 mph69%30.21 "Hg9 mi
2:00 PM67 °FMild.14 mph70%30.22 "Hg12 mi
Weather by CustomWeather, © 2015

See weather overviewHow to use our weather pages